Year,Month,Day,Hour,Minute,Value (Times are PST for temperature in C)
2017,06,24,00,00,21.00
2017,06,24,00,01,21.00
2017,06,24,00,02,20.90
2017,06,24,00,03,20.80
2017,06,24,00,04,20.80
2017,06,24,00,05,20.70
2017,06,24,00,06,20.60
2017,06,24,00,07,20.50
2017,06,24,00,08,20.40
2017,06,24,00,09,20.30
2017,06,24,00,10,20.20
2017,06,24,00,11,20.00
2017,06,24,00,12,19.90
2017,06,24,00,13,19.80
2017,06,24,00,14,19.70
2017,06,24,00,15,19.60
2017,06,24,00,16,19.50
2017,06,24,00,17,19.40
2017,06,24,00,18,19.30
2017,06,24,00,19,19.20
2017,06,24,00,20,19.10
2017,06,24,00,21,19.00
2017,06,24,00,22,18.90
2017,06,24,00,23,18.90
2017,06,24,00,24,18.90
2017,06,24,00,25,18.80
2017,06,24,00,26,18.80
2017,06,24,00,27,18.80
2017,06,24,00,28,18.70
2017,06,24,00,29,18.70
2017,06,24,00,30,18.60
2017,06,24,00,31,18.60
2017,06,24,00,32,18.50
2017,06,24,00,33,18.40
2017,06,24,00,34,18.40
2017,06,24,00,35,18.30
2017,06,24,00,36,18.20
2017,06,24,00,37,18.20
2017,06,24,00,38,18.10
2017,06,24,00,39,18.00
2017,06,24,00,40,17.90
2017,06,24,00,41,17.90
2017,06,24,00,42,17.80
2017,06,24,00,43,17.70
2017,06,24,00,44,17.70
2017,06,24,00,45,17.70
2017,06,24,00,46,17.60
2017,06,24,00,47,17.50
2017,06,24,00,48,17.50
2017,06,24,00,49,17.40
2017,06,24,00,50,17.40
2017,06,24,00,51,17.40
2017,06,24,00,52,17.30
2017,06,24,00,53,17.30
2017,06,24,00,54,17.30
2017,06,24,00,55,17.20
2017,06,24,00,56,17.20
2017,06,24,00,57,17.20
2017,06,24,00,58,17.10
2017,06,24,00,59,17.10
2017,06,24,01,00,17.10
2017,06,24,01,01,17.10
2017,06,24,01,02,17.10
2017,06,24,01,03,17.00
2017,06,24,01,04,17.00
2017,06,24,01,05,17.00
2017,06,24,01,06,17.00
2017,06,24,01,07,17.00
2017,06,24,01,08,16.90
2017,06,24,01,09,16.90
2017,06,24,01,10,16.90
2017,06,24,01,11,16.90
2017,06,24,01,12,16.90
2017,06,24,01,13,16.90
2017,06,24,01,14,16.80
2017,06,24,01,15,16.80
2017,06,24,01,16,16.80
2017,06,24,01,17,16.80
2017,06,24,01,18,16.70
2017,06,24,01,19,16.70
2017,06,24,01,20,16.70
2017,06,24,01,21,16.70
2017,06,24,01,22,16.70
2017,06,24,01,23,16.80
2017,06,24,01,24,16.80
2017,06,24,01,25,16.90
2017,06,24,01,26,16.90
2017,06,24,01,27,16.90
2017,06,24,01,28,17.00
2017,06,24,01,29,17.20
2017,06,24,01,30,17.30
2017,06,24,01,31,17.30
2017,06,24,01,32,17.50
2017,06,24,01,33,17.60
2017,06,24,01,34,17.70
2017,06,24,01,35,17.80
2017,06,24,01,36,17.90
2017,06,24,01,37,17.90
2017,06,24,01,38,18.00
2017,06,24,01,39,18.00
2017,06,24,01,40,18.00
2017,06,24,01,41,18.10
2017,06,24,01,42,18.20
2017,06,24,01,43,18.20
2017,06,24,01,44,18.30
2017,06,24,01,45,18.40
2017,06,24,01,46,18.40
2017,06,24,01,47,18.50
2017,06,24,01,48,18.60
2017,06,24,01,49,18.60
2017,06,24,01,50,18.70
2017,06,24,01,51,18.70
2017,06,24,01,52,18.80
2017,06,24,01,53,18.80
2017,06,24,01,54,18.90
2017,06,24,01,55,18.90
2017,06,24,01,56,18.90
2017,06,24,01,57,18.90
2017,06,24,01,58,18.90
2017,06,24,01,59,18.90
2017,06,24,02,00,18.90
2017,06,24,02,01,18.80
2017,06,24,02,02,18.80
2017,06,24,02,03,18.70
2017,06,24,02,04,18.70
2017,06,24,02,05,18.60
2017,06,24,02,06,18.60
2017,06,24,02,07,18.50
2017,06,24,02,08,18.50
2017,06,24,02,09,18.40
2017,06,24,02,10,18.40
2017,06,24,02,11,18.30
2017,06,24,02,12,18.30
2017,06,24,02,13,18.20
2017,06,24,02,14,18.10
2017,06,24,02,15,18.00
2017,06,24,02,16,17.90
2017,06,24,02,17,17.80
2017,06,24,02,18,17.70
2017,06,24,02,19,17.70
2017,06,24,02,20,17.70
2017,06,24,02,21,17.90
2017,06,24,02,22,18.10
2017,06,24,02,23,18.20
2017,06,24,02,24,18.40
2017,06,24,02,25,18.70
2017,06,24,02,26,19.00
2017,06,24,02,27,19.20
2017,06,24,02,28,19.40
2017,06,24,02,29,19.50
2017,06,24,02,30,19.60
2017,06,24,02,31,19.70
2017,06,24,02,32,19.80
2017,06,24,02,33,19.80
2017,06,24,02,34,19.80
2017,06,24,02,35,19.80
2017,06,24,02,36,19.80
2017,06,24,02,37,19.70
2017,06,24,02,38,19.70
2017,06,24,02,39,19.70
2017,06,24,02,40,19.60
2017,06,24,02,41,19.50
2017,06,24,02,42,19.40
2017,06,24,02,43,19.40
2017,06,24,02,44,19.30
2017,06,24,02,45,19.20
2017,06,24,02,46,19.10
2017,06,24,02,47,18.90
2017,06,24,02,48,18.80
2017,06,24,02,49,18.70
2017,06,24,02,50,18.50
2017,06,24,02,51,18.30
2017,06,24,02,52,18.20
2017,06,24,02,53,18.00
2017,06,24,02,54,17.90
2017,06,24,02,55,17.80
2017,06,24,02,56,17.60
2017,06,24,02,57,17.40
2017,06,24,02,58,17.30
2017,06,24,02,59,17.20
2017,06,24,03,00,17.10
2017,06,24,03,01,17.00
2017,06,24,03,02,16.90
2017,06,24,03,03,16.80
2017,06,24,03,04,16.80
2017,06,24,03,05,16.70
2017,06,24,03,06,16.70
2017,06,24,03,07,16.60
2017,06,24,03,08,16.60
2017,06,24,03,09,16.50
2017,06,24,03,10,16.50
2017,06,24,03,11,16.50
2017,06,24,03,12,16.60
2017,06,24,03,13,16.70
2017,06,24,03,14,16.90
2017,06,24,03,15,17.00
2017,06,24,03,16,17.10
2017,06,24,03,17,17.20
2017,06,24,03,18,17.40
2017,06,24,03,19,17.50
2017,06,24,03,20,17.60
2017,06,24,03,21,17.80
2017,06,24,03,22,17.90
2017,06,24,03,23,18.00
2017,06,24,03,24,18.00
2017,06,24,03,25,18.10
2017,06,24,03,26,18.10
2017,06,24,03,27,18.20
2017,06,24,03,28,18.20
2017,06,24,03,29,18.20
2017,06,24,03,30,18.30
2017,06,24,03,31,18.30
2017,06,24,03,32,18.30
2017,06,24,03,33,18.30
2017,06,24,03,34,18.30
2017,06,24,03,35,18.30
2017,06,24,03,36,18.30
2017,06,24,03,37,18.30
2017,06,24,03,38,18.30
2017,06,24,03,39,18.20
2017,06,24,03,40,18.10
2017,06,24,03,41,18.00
2017,06,24,03,42,17.90
2017,06,24,03,43,17.80
2017,06,24,03,44,17.60
2017,06,24,03,45,17.50
2017,06,24,03,46,17.40
2017,06,24,03,47,17.30
2017,06,24,03,48,17.30
2017,06,24,03,49,17.30
2017,06,24,03,50,17.20
2017,06,24,03,51,17.20
2017,06,24,03,52,17.20
2017,06,24,03,53,17.20
2017,06,24,03,54,17.20
2017,06,24,03,55,17.20
2017,06,24,03,56,17.20
2017,06,24,03,57,17.30
2017,06,24,03,58,17.30
2017,06,24,03,59,17.40
2017,06,24,04,00,17.40
2017,06,24,04,01,17.50
2017,06,24,04,02,17.50
2017,06,24,04,03,17.60
2017,06,24,04,04,17.70
2017,06,24,04,05,17.70
2017,06,24,04,06,17.70
2017,06,24,04,07,17.80
2017,06,24,04,08,17.80
2017,06,24,04,09,17.80
2017,06,24,04,10,17.70
2017,06,24,04,11,17.70
2017,06,24,04,12,17.70
2017,06,24,04,13,17.60
2017,06,24,04,14,17.70
2017,06,24,04,15,17.70
2017,06,24,04,16,17.70
2017,06,24,04,17,17.80
2017,06,24,04,18,17.80
2017,06,24,04,19,17.90
2017,06,24,04,20,17.90
2017,06,24,04,21,17.90
2017,06,24,04,22,17.90
2017,06,24,04,23,17.90
2017,06,24,04,24,17.90
2017,06,24,04,25,17.80
2017,06,24,04,26,17.70
2017,06,24,04,27,17.60
2017,06,24,04,28,17.50
2017,06,24,04,29,17.40
2017,06,24,04,30,17.30
2017,06,24,04,31,17.40
2017,06,24,04,32,17.40
2017,06,24,04,33,17.40
2017,06,24,04,34,17.40
2017,06,24,04,35,17.40
2017,06,24,04,36,17.40
2017,06,24,04,37,17.40
2017,06,24,04,38,17.40
2017,06,24,04,39,17.40
2017,06,24,04,40,17.40
2017,06,24,04,41,17.40
2017,06,24,04,42,17.40
2017,06,24,04,43,17.40
2017,06,24,04,44,17.40
2017,06,24,04,45,17.40
2017,06,24,04,46,17.40
2017,06,24,04,47,17.40
2017,06,24,04,48,17.40
2017,06,24,04,49,17.50
2017,06,24,04,50,17.50
2017,06,24,04,51,17.60
2017,06,24,04,52,17.60
2017,06,24,04,53,17.70
2017,06,24,04,54,17.70
2017,06,24,04,55,17.60
2017,06,24,04,56,17.60
2017,06,24,04,57,17.50
2017,06,24,04,58,17.50
2017,06,24,04,59,17.40
2017,06,24,05,00,17.30
2017,06,24,05,01,17.20
2017,06,24,05,02,17.00
2017,06,24,05,03,16.90
2017,06,24,05,04,16.70
2017,06,24,05,05,16.60
2017,06,24,05,06,16.50
2017,06,24,05,07,16.50
2017,06,24,05,08,16.40
2017,06,24,05,09,16.40
2017,06,24,05,10,16.40
2017,06,24,05,11,16.40
2017,06,24,05,12,16.30
2017,06,24,05,13,16.30
2017,06,24,05,14,16.20
2017,06,24,05,15,16.20
2017,06,24,05,16,16.10
2017,06,24,05,17,16.00
2017,06,24,05,18,15.90
2017,06,24,05,19,15.90
2017,06,24,05,20,15.80
2017,06,24,05,21,15.80
2017,06,24,05,22,15.70
2017,06,24,05,23,15.70
2017,06,24,05,24,15.80
2017,06,24,05,25,16.00
2017,06,24,05,26,16.10
2017,06,24,05,27,16.20
2017,06,24,05,28,16.30
2017,06,24,05,29,16.30
2017,06,24,05,30,16.30
2017,06,24,05,31,16.40
2017,06,24,05,32,16.40
2017,06,24,05,33,16.40
2017,06,24,05,34,16.30
2017,06,24,05,35,16.30
2017,06,24,05,36,16.30
2017,06,24,05,37,16.30
2017,06,24,05,38,16.30
2017,06,24,05,39,16.20
2017,06,24,05,40,16.20
2017,06,24,05,41,16.10
2017,06,24,05,42,16.10
2017,06,24,05,43,16.00
2017,06,24,05,44,16.00
2017,06,24,05,45,15.90
2017,06,24,05,46,15.90
2017,06,24,05,47,15.80
2017,06,24,05,48,15.90
2017,06,24,05,49,15.90
2017,06,24,05,50,15.90
2017,06,24,05,51,15.90
2017,06,24,05,52,15.90
2017,06,24,05,53,16.00
2017,06,24,05,54,16.00
2017,06,24,05,55,16.10
2017,06,24,05,56,16.20
2017,06,24,05,57,16.30
2017,06,24,05,58,16.40
2017,06,24,05,59,16.50
2017,06,24,06,00,16.50
2017,06,24,06,01,16.60
2017,06,24,06,02,16.60
2017,06,24,06,03,16.70
2017,06,24,06,04,16.70
2017,06,24,06,05,16.70
2017,06,24,06,06,16.80
2017,06,24,06,07,16.80
2017,06,24,06,08,16.80
2017,06,24,06,09,16.90
2017,06,24,06,10,16.90
2017,06,24,06,11,16.90
2017,06,24,06,12,16.80
2017,06,24,06,13,16.80
2017,06,24,06,14,16.80
2017,06,24,06,15,16.80
2017,06,24,06,16,16.80
2017,06,24,06,17,16.80
2017,06,24,06,18,16.80
2017,06,24,06,19,16.80
2017,06,24,06,20,16.80
2017,06,24,06,21,16.90
2017,06,24,06,22,16.90
2017,06,24,06,23,16.90
2017,06,24,06,24,16.90
2017,06,24,06,25,17.00
2017,06,24,06,26,17.00
2017,06,24,06,27,17.00
2017,06,24,06,28,17.00
2017,06,24,06,29,17.10
2017,06,24,06,30,17.10
2017,06,24,06,31,17.20
2017,06,24,06,32,17.20
2017,06,24,06,33,17.30
2017,06,24,06,34,17.40
2017,06,24,06,35,17.40
2017,06,24,06,36,17.50
2017,06,24,06,37,17.60
2017,06,24,06,38,17.70
2017,06,24,06,39,17.70
2017,06,24,06,40,17.80
2017,06,24,06,41,17.90
2017,06,24,06,42,18.00
2017,06,24,06,43,18.10
2017,06,24,06,44,18.10
2017,06,24,06,45,18.20
2017,06,24,06,46,18.30
2017,06,24,06,47,18.40
2017,06,24,06,48,18.50
2017,06,24,06,49,18.50
2017,06,24,06,50,18.60
2017,06,24,06,51,18.60
2017,06,24,06,52,18.70
2017,06,24,06,53,18.70
2017,06,24,06,54,18.80
2017,06,24,06,55,18.80
2017,06,24,06,56,18.80
2017,06,24,06,57,18.90
2017,06,24,06,58,18.90
2017,06,24,06,59,19.00
2017,06,24,07,00,19.00
2017,06,24,07,01,19.00
2017,06,24,07,02,19.10
2017,06,24,07,03,19.10
2017,06,24,07,04,19.20
2017,06,24,07,05,19.20
2017,06,24,07,06,19.30
2017,06,24,07,07,19.30
2017,06,24,07,08,19.40
2017,06,24,07,09,19.40
2017,06,24,07,10,19.40
2017,06,24,07,11,19.50
2017,06,24,07,12,19.50
2017,06,24,07,13,19.60
2017,06,24,07,14,19.60
2017,06,24,07,15,19.60
2017,06,24,07,16,19.60
2017,06,24,07,17,19.70
2017,06,24,07,18,19.70
2017,06,24,07,19,19.70
2017,06,24,07,20,19.80
2017,06,24,07,21,19.80
2017,06,24,07,22,19.80
2017,06,24,07,23,19.90
2017,06,24,07,24,19.90
2017,06,24,07,25,20.00
2017,06,24,07,26,20.00
2017,06,24,07,27,20.10
2017,06,24,07,28,20.10
2017,06,24,07,29,20.10
2017,06,24,07,30,20.10
2017,06,24,07,31,20.20
2017,06,24,07,32,20.20
2017,06,24,07,33,20.20
2017,06,24,07,34,20.20
2017,06,24,07,35,20.20
2017,06,24,07,36,20.30
2017,06,24,07,37,20.30
2017,06,24,07,38,20.30
2017,06,24,07,39,20.30
2017,06,24,07,40,20.40
2017,06,24,07,41,20.40
2017,06,24,07,42,20.40
2017,06,24,07,43,20.40
2017,06,24,07,44,20.40
2017,06,24,07,45,20.50
2017,06,24,07,46,20.50
2017,06,24,07,47,20.50
2017,06,24,07,48,20.50
2017,06,24,07,49,20.50
2017,06,24,07,50,20.50
2017,06,24,07,51,20.50
2017,06,24,07,52,20.50
2017,06,24,07,53,20.50
2017,06,24,07,54,20.60
2017,06,24,07,55,20.60
2017,06,24,07,56,20.60
2017,06,24,07,57,20.60
2017,06,24,07,58,20.60
2017,06,24,07,59,20.60
2017,06,24,08,00,20.60
2017,06,24,08,01,20.70
2017,06,24,08,02,20.70
2017,06,24,08,03,20.80
2017,06,24,08,04,20.80
2017,06,24,08,05,20.80
2017,06,24,08,06,20.80
2017,06,24,08,07,20.80
2017,06,24,08,08,20.70
2017,06,24,08,09,20.70
2017,06,24,08,10,20.60
2017,06,24,08,11,20.60
2017,06,24,08,12,20.60
2017,06,24,08,13,20.60
2017,06,24,08,14,20.60
2017,06,24,08,15,20.60
2017,06,24,08,16,20.60
2017,06,24,08,17,20.60
2017,06,24,08,18,20.60
2017,06,24,08,19,20.60
2017,06,24,08,20,20.60
2017,06,24,08,21,20.60
2017,06,24,08,22,20.60
2017,06,24,08,23,20.60
2017,06,24,08,24,20.70
2017,06,24,08,25,20.70
2017,06,24,08,26,20.80
2017,06,24,08,27,20.80
2017,06,24,08,28,20.80
2017,06,24,08,29,20.90
2017,06,24,08,30,20.90
2017,06,24,08,31,20.80
2017,06,24,08,32,20.80
2017,06,24,08,33,20.80
2017,06,24,08,34,20.70
2017,06,24,08,35,20.70
2017,06,24,08,36,20.60
2017,06,24,08,37,20.60
2017,06,24,08,38,20.50
2017,06,24,08,39,20.50
2017,06,24,08,40,20.60
2017,06,24,08,41,20.60
2017,06,24,08,42,20.60
2017,06,24,08,43,20.50
2017,06,24,08,44,20.50
2017,06,24,08,45,20.50
2017,06,24,08,46,20.50
2017,06,24,08,47,20.50
2017,06,24,08,48,20.50
2017,06,24,08,49,20.50
2017,06,24,08,50,20.50
2017,06,24,08,51,20.50
2017,06,24,08,52,20.50
2017,06,24,08,53,20.50
2017,06,24,08,54,20.40
2017,06,24,08,55,20.40
2017,06,24,08,56,20.40
2017,06,24,08,57,20.30
2017,06,24,08,58,20.30
2017,06,24,08,59,20.30
2017,06,24,09,00,20.40
2017,06,24,09,01,20.40
2017,06,24,09,02,20.50
2017,06,24,09,03,20.50
2017,06,24,09,04,20.60
2017,06,24,09,05,20.70
2017,06,24,09,06,20.70
2017,06,24,09,07,20.80
2017,06,24,09,08,20.80
2017,06,24,09,09,20.90
2017,06,24,09,10,20.90
2017,06,24,09,11,21.00
2017,06,24,09,12,21.00
2017,06,24,09,13,21.00
2017,06,24,09,14,21.00
2017,06,24,09,15,21.00
2017,06,24,09,16,20.90
2017,06,24,09,17,20.80
2017,06,24,09,18,20.70
2017,06,24,09,19,20.70
2017,06,24,09,20,20.60
2017,06,24,09,21,20.60
2017,06,24,09,22,20.50
2017,06,24,09,23,20.40
2017,06,24,09,24,20.30
2017,06,24,09,25,20.20
2017,06,24,09,26,20.10
2017,06,24,09,27,20.00
2017,06,24,09,28,19.90
2017,06,24,09,29,19.80
2017,06,24,09,30,19.80
2017,06,24,09,31,19.80
2017,06,24,09,32,19.70
2017,06,24,09,33,19.70
2017,06,24,09,34,19.70
2017,06,24,09,35,19.60
2017,06,24,09,36,19.60
2017,06,24,09,37,19.60
2017,06,24,09,38,19.60
2017,06,24,09,39,19.70
2017,06,24,09,40,19.70
2017,06,24,09,41,19.80
2017,06,24,09,42,19.80
2017,06,24,09,43,19.80
2017,06,24,09,44,19.90
2017,06,24,09,45,19.90
2017,06,24,09,46,19.90
2017,06,24,09,47,19.90
2017,06,24,09,48,20.00
2017,06,24,09,49,20.00
2017,06,24,09,50,20.00
2017,06,24,09,51,20.00
2017,06,24,09,52,20.00
2017,06,24,09,53,20.00
2017,06,24,09,54,19.90
2017,06,24,09,55,19.90
2017,06,24,09,56,19.90
2017,06,24,09,57,19.80
2017,06,24,09,58,19.80
2017,06,24,09,59,19.70
2017,06,24,10,00,19.70
2017,06,24,10,01,19.60
2017,06,24,10,02,19.60
2017,06,24,10,03,19.60
2017,06,24,10,04,19.60
2017,06,24,10,05,19.60
2017,06,24,10,06,19.60
2017,06,24,10,07,19.60
2017,06,24,10,08,19.60
2017,06,24,10,09,19.60
2017,06,24,10,10,19.60
2017,06,24,10,11,19.60
2017,06,24,10,12,19.60
2017,06,24,10,13,19.70
2017,06,24,10,14,19.70
2017,06,24,10,15,19.70
2017,06,24,10,16,19.70
2017,06,24,10,17,19.70
2017,06,24,10,18,19.70
2017,06,24,10,19,19.70
2017,06,24,10,20,19.70
2017,06,24,10,21,19.70
2017,06,24,10,22,19.70
2017,06,24,10,23,19.70
2017,06,24,10,24,19.70
2017,06,24,10,25,19.70
2017,06,24,10,26,19.80
2017,06,24,10,27,19.80
2017,06,24,10,28,19.80
2017,06,24,10,29,19.80
2017,06,24,10,30,19.80
2017,06,24,10,31,19.80
2017,06,24,10,32,19.80
2017,06,24,10,33,19.80
2017,06,24,10,34,19.90
2017,06,24,10,35,19.90
2017,06,24,10,36,20.00
2017,06,24,10,37,20.10
2017,06,24,10,38,20.10
2017,06,24,10,39,20.20
2017,06,24,10,40,20.20
2017,06,24,10,41,20.30
2017,06,24,10,42,20.40
2017,06,24,10,43,20.40
2017,06,24,10,44,20.50
2017,06,24,10,45,20.60
2017,06,24,10,46,20.60
2017,06,24,10,47,20.70
2017,06,24,10,48,20.70
2017,06,24,10,49,20.70
2017,06,24,10,50,20.80
2017,06,24,10,51,20.80
2017,06,24,10,52,20.80
2017,06,24,10,53,20.90
2017,06,24,10,54,20.90
2017,06,24,10,55,20.90
2017,06,24,10,56,21.00
2017,06,24,10,57,21.00
2017,06,24,10,58,21.00
2017,06,24,10,59,21.00
2017,06,24,11,00,21.00
2017,06,24,11,01,21.10
2017,06,24,11,02,21.10
2017,06,24,11,03,21.10
2017,06,24,11,04,21.10
2017,06,24,11,05,21.20
2017,06,24,11,06,21.20
2017,06,24,11,07,21.20
2017,06,24,11,08,21.20
2017,06,24,11,09,21.20
2017,06,24,11,10,21.20
2017,06,24,11,11,21.20
2017,06,24,11,12,21.20
2017,06,24,11,13,21.30
2017,06,24,11,14,21.30
2017,06,24,11,15,21.30
2017,06,24,11,16,21.30
2017,06,24,11,17,21.30
2017,06,24,11,18,21.30
2017,06,24,11,19,21.30
2017,06,24,11,20,21.30
2017,06,24,11,21,21.20
2017,06,24,11,22,21.20
2017,06,24,11,23,21.20
2017,06,24,11,24,21.20
2017,06,24,11,25,21.10
2017,06,24,11,26,21.10
2017,06,24,11,27,21.10
2017,06,24,11,28,21.10
2017,06,24,11,29,21.10
2017,06,24,11,30,21.10
2017,06,24,11,31,21.10
2017,06,24,11,32,21.10
2017,06,24,11,33,21.20
2017,06,24,11,34,21.20
2017,06,24,11,35,21.20
2017,06,24,11,36,21.20
2017,06,24,11,37,21.20
2017,06,24,11,38,21.30
2017,06,24,11,39,21.30
2017,06,24,11,40,21.30
2017,06,24,11,41,21.20
2017,06,24,11,42,21.20
2017,06,24,11,43,21.30
2017,06,24,11,44,21.30
2017,06,24,11,45,21.30
2017,06,24,11,46,21.30
2017,06,24,11,47,21.20
2017,06,24,11,48,21.10
2017,06,24,11,49,21.10
2017,06,24,11,50,21.00
2017,06,24,11,51,21.00
2017,06,24,11,52,20.90
2017,06,24,11,53,20.80
2017,06,24,11,54,20.70
2017,06,24,11,55,20.70
2017,06,24,11,56,20.70
2017,06,24,11,57,20.70
2017,06,24,11,58,20.60
2017,06,24,11,59,20.60
2017,06,24,12,00,20.60
2017,06,24,12,01,20.50
2017,06,24,12,02,20.50
2017,06,24,12,03,20.50
2017,06,24,12,04,20.40
2017,06,24,12,05,20.40
2017,06,24,12,06,20.40
2017,06,24,12,07,20.50
2017,06,24,12,08,20.50
2017,06,24,12,09,20.50
2017,06,24,12,10,20.50
2017,06,24,12,11,20.50
2017,06,24,12,12,20.60
2017,06,24,12,13,20.60
2017,06,24,12,14,20.60
2017,06,24,12,15,20.60
2017,06,24,12,16,20.60
2017,06,24,12,17,20.60
2017,06,24,12,18,20.60
2017,06,24,12,19,20.60
2017,06,24,12,20,20.60
2017,06,24,12,21,20.70
2017,06,24,12,22,20.70
2017,06,24,12,23,20.70
2017,06,24,12,24,20.80
2017,06,24,12,25,20.80
2017,06,24,12,26,20.80
2017,06,24,12,27,20.90
2017,06,24,12,28,21.00
2017,06,24,12,29,21.10
2017,06,24,12,30,21.10
2017,06,24,12,31,21.20
2017,06,24,12,32,21.20
2017,06,24,12,33,21.30
2017,06,24,12,34,21.30
2017,06,24,12,35,21.30
2017,06,24,12,36,21.30
2017,06,24,12,37,21.40
2017,06,24,12,38,21.40
2017,06,24,12,39,21.40
2017,06,24,12,40,21.50
2017,06,24,12,41,21.50
2017,06,24,12,42,21.60
2017,06,24,12,43,21.70
2017,06,24,12,44,21.80
2017,06,24,12,45,21.90
2017,06,24,12,46,21.90
2017,06,24,12,47,22.00
2017,06,24,12,48,22.00
2017,06,24,12,49,22.10
2017,06,24,12,50,22.10
2017,06,24,12,51,22.10
2017,06,24,12,52,22.10
2017,06,24,12,53,22.10
2017,06,24,12,54,22.10
2017,06,24,12,55,22.10
2017,06,24,12,56,22.10
2017,06,24,12,57,22.10
2017,06,24,12,58,22.10
2017,06,24,12,59,22.10
2017,06,24,13,00,22.00
2017,06,24,13,01,22.10
2017,06,24,13,02,22.10
2017,06,24,13,03,22.10
2017,06,24,13,04,22.10
2017,06,24,13,05,22.10
2017,06,24,13,06,22.10
2017,06,24,13,07,22.10
2017,06,24,13,08,22.10
2017,06,24,13,09,22.20
2017,06,24,13,10,22.20
2017,06,24,13,11,22.20
2017,06,24,13,12,22.20
2017,06,24,13,13,22.20
2017,06,24,13,14,22.30
2017,06,24,13,15,22.30
2017,06,24,13,16,22.40
2017,06,24,13,17,22.50
2017,06,24,13,18,22.60
2017,06,24,13,19,22.70
2017,06,24,13,20,22.70
2017,06,24,13,21,22.70
2017,06,24,13,22,22.70
2017,06,24,13,23,22.70
2017,06,24,13,24,22.60
2017,06,24,13,25,22.60
2017,06,24,13,26,22.50
2017,06,24,13,27,22.40
2017,06,24,13,28,22.40
2017,06,24,13,29,22.40
2017,06,24,13,30,22.40
2017,06,24,13,31,22.30
2017,06,24,13,32,22.20
2017,06,24,13,33,22.20
2017,06,24,13,34,22.20
2017,06,24,13,35,22.20
2017,06,24,13,36,22.20
2017,06,24,13,37,22.20
2017,06,24,13,38,22.30
2017,06,24,13,39,22.40
2017,06,24,13,40,22.50
2017,06,24,13,41,22.50
2017,06,24,13,42,22.60
2017,06,24,13,43,22.70
2017,06,24,13,44,22.70
2017,06,24,13,45,22.70
2017,06,24,13,46,22.70
2017,06,24,13,47,22.70
2017,06,24,13,48,22.80
2017,06,24,13,49,22.80
2017,06,24,13,50,22.90
2017,06,24,13,51,23.00
2017,06,24,13,52,23.00
2017,06,24,13,53,23.10
2017,06,24,13,54,23.10
2017,06,24,13,55,23.20
2017,06,24,13,56,23.20
2017,06,24,13,57,23.20
2017,06,24,13,58,23.30
2017,06,24,13,59,23.30
2017,06,24,14,00,23.30
2017,06,24,14,01,23.30
2017,06,24,14,02,23.40
2017,06,24,14,03,23.50
2017,06,24,14,04,23.60
2017,06,24,14,05,23.70
2017,06,24,14,06,23.80
2017,06,24,14,07,23.90
2017,06,24,14,08,24.00
2017,06,24,14,09,24.10
2017,06,24,14,10,24.20
2017,06,24,14,11,24.30
2017,06,24,14,12,24.30
2017,06,24,14,13,24.30
2017,06,24,14,14,24.40
2017,06,24,14,15,24.40
2017,06,24,14,16,24.40
2017,06,24,14,17,24.40
2017,06,24,14,18,24.40
2017,06,24,14,19,24.30
2017,06,24,14,20,24.30
2017,06,24,14,21,24.30
2017,06,24,14,22,24.20
2017,06,24,14,23,24.20
2017,06,24,14,24,24.20
2017,06,24,14,25,24.20
2017,06,24,14,26,24.20
2017,06,24,14,27,24.20
2017,06,24,14,28,24.20
2017,06,24,14,29,24.20
2017,06,24,14,30,24.20
2017,06,24,14,31,24.30
2017,06,24,14,32,24.30
2017,06,24,14,33,24.30
2017,06,24,14,34,24.30
2017,06,24,14,35,24.30
2017,06,24,14,36,24.30
2017,06,24,14,37,24.40
2017,06,24,14,38,24.40
2017,06,24,14,39,24.40
2017,06,24,14,40,24.40
2017,06,24,14,41,24.50
2017,06,24,14,42,24.50
2017,06,24,14,43,24.60
2017,06,24,14,44,24.60
2017,06,24,14,45,24.60
2017,06,24,14,46,24.70
2017,06,24,14,47,24.80
2017,06,24,14,48,24.80
2017,06,24,14,49,24.90
2017,06,24,14,50,24.90
2017,06,24,14,51,25.00
2017,06,24,14,52,25.00
2017,06,24,14,53,25.00
2017,06,24,14,54,25.10
2017,06,24,14,55,25.10
2017,06,24,14,56,25.10
2017,06,24,14,57,25.10
2017,06,24,14,58,25.00
2017,06,24,14,59,25.00
2017,06,24,15,00,25.00
2017,06,24,15,01,25.00
2017,06,24,15,02,25.00
2017,06,24,15,03,25.00
2017,06,24,15,04,25.00
2017,06,24,15,05,25.10
2017,06,24,15,06,25.20
2017,06,24,15,07,25.20
2017,06,24,15,08,25.30
2017,06,24,15,09,25.40
2017,06,24,15,10,25.50
2017,06,24,15,11,25.50
2017,06,24,15,12,25.50
2017,06,24,15,13,25.50
2017,06,24,15,14,25.50
2017,06,24,15,15,25.60
2017,06,24,15,16,25.60
2017,06,24,15,17,25.60
2017,06,24,15,18,25.70
2017,06,24,15,19,25.70
2017,06,24,15,20,25.80
2017,06,24,15,21,25.80
2017,06,24,15,22,25.90
2017,06,24,15,23,25.90
2017,06,24,15,24,26.00
2017,06,24,15,25,26.10
2017,06,24,15,26,26.20
2017,06,24,15,27,26.20
2017,06,24,15,28,26.30
2017,06,24,15,29,26.40
2017,06,24,15,30,26.40
2017,06,24,15,31,26.40
2017,06,24,15,32,26.40
2017,06,24,15,33,26.40
2017,06,24,15,34,26.40
2017,06,24,15,35,26.40
2017,06,24,15,36,26.50
2017,06,24,15,37,26.50
2017,06,24,15,38,26.60
2017,06,24,15,39,26.60
2017,06,24,15,40,26.60
2017,06,24,15,41,26.70
2017,06,24,15,42,26.70
2017,06,24,15,43,26.70
2017,06,24,15,44,26.70
2017,06,24,15,45,26.70
2017,06,24,15,46,26.80
2017,06,24,15,47,26.80
2017,06,24,15,48,26.80
2017,06,24,15,49,26.80
2017,06,24,15,50,26.90
2017,06,24,15,51,26.90
2017,06,24,15,52,26.90
2017,06,24,15,53,26.90
2017,06,24,15,54,26.90
2017,06,24,15,55,27.00
2017,06,24,15,56,27.00
2017,06,24,15,57,27.00
2017,06,24,15,58,27.10
2017,06,24,15,59,27.10
2017,06,24,16,00,27.10
2017,06,24,16,01,27.10
2017,06,24,16,02,27.10
2017,06,24,16,03,27.10
2017,06,24,16,04,27.20
2017,06,24,16,05,27.20
2017,06,24,16,06,27.30
2017,06,24,16,07,27.30
2017,06,24,16,08,27.40
2017,06,24,16,09,27.40
2017,06,24,16,10,27.40
2017,06,24,16,11,27.40
2017,06,24,16,12,27.40
2017,06,24,16,13,27.50
2017,06,24,16,14,27.50
2017,06,24,16,15,27.50
2017,06,24,16,16,27.60
2017,06,24,16,17,27.70
2017,06,24,16,18,27.70
2017,06,24,16,19,27.70
2017,06,24,16,20,27.80
2017,06,24,16,21,27.80
2017,06,24,16,22,27.80
2017,06,24,16,23,27.80
2017,06,24,16,24,27.80
2017,06,24,16,25,27.80
2017,06,24,16,26,27.70
2017,06,24,16,27,27.60
2017,06,24,16,28,27.60
2017,06,24,16,29,27.50
2017,06,24,16,30,27.50
2017,06,24,16,31,27.40
2017,06,24,16,32,27.40
2017,06,24,16,33,27.50
2017,06,24,16,34,27.50
2017,06,24,16,35,27.60
2017,06,24,16,36,27.60
2017,06,24,16,37,27.60
2017,06,24,16,38,27.60
2017,06,24,16,39,27.60
2017,06,24,16,40,27.60
2017,06,24,16,41,27.60
2017,06,24,16,42,27.60
2017,06,24,16,43,27.60
2017,06,24,16,44,27.60
2017,06,24,16,45,27.60
2017,06,24,16,46,27.70
2017,06,24,16,47,27.70
2017,06,24,16,48,27.80
2017,06,24,16,49,27.80
2017,06,24,16,50,27.80
2017,06,24,16,51,27.90
2017,06,24,16,52,27.90
2017,06,24,16,53,27.90
2017,06,24,16,54,27.90
2017,06,24,16,55,27.90
2017,06,24,16,56,27.90
2017,06,24,16,57,27.90
2017,06,24,16,58,28.00
2017,06,24,16,59,28.00
2017,06,24,17,00,28.10
2017,06,24,17,01,28.20
2017,06,24,17,02,28.20
2017,06,24,17,03,28.30
2017,06,24,17,04,28.40
2017,06,24,17,05,28.40
2017,06,24,17,06,28.40
2017,06,24,17,07,28.40
2017,06,24,17,08,28.50
2017,06,24,17,09,28.40
2017,06,24,17,10,28.40
2017,06,24,17,11,28.40
2017,06,24,17,12,28.40
2017,06,24,17,13,28.40
2017,06,24,17,14,28.40
2017,06,24,17,15,28.40
2017,06,24,17,16,28.40
2017,06,24,17,17,28.40
2017,06,24,17,18,28.40
2017,06,24,17,19,28.40